Hourly Weather Roundup
Issued by NWS Central Illinois

Home | Current Version | Previous Version | Text Only | Print | Product List | Glossary On
Versions: 1 2 3 4 5 6 7 8 9 10 11 12 13 14 15 16 17 18 19 20 21 22 23 24 25 26 27 28 29 30 31 32 33 34 35 36 37 38 39 40 41 42 43 44 45 46 47 48 49 50
000
NZUS43 KILX 200510
HWRILX

AREA WEATHER ROUNDUP
NATIONAL WEATHER SERVICE, LINCOLN IL
1200 AM CDT SUN APR 20 2014


CITY           SKY/WX    TMP DP  RH WIND       PRES   REMARKS
BLOOMINGTON    PTCLDY    50  37  60 SE10      30.23S
CHAMPAIGN      PTCLDY    50  38  63 E7        30.24R
DANVILLE       PTCLDY    50  39  65 E7        30.22S
DECATUR        PTCLDY    50  38  63 SE3       30.22S
FLORA          NOT AVBL
GALESBURG      CLEAR     57  40  53 SE5       30.17S
JACKSONVILLE   CLEAR     54  42  62 SE8       30.19S
LACON          PTCLDY    55  39  54 SE9       30.18F
LAWRENCEVILLE  PTCLDY    56  43  61 NE7       30.21S
LITCHFIELD     CLEAR     58  38  49 CALM      30.19S
$$


CITY           SKY/WX    TMP DP  RH WIND       PRES   REMARKS
LINCOLN        CLEAR     51  36  55 CALM      30.21S
MACOMB         CLEAR     53  39  58 S6        30.19S
MATTOON        PTCLDY    57  38  48 SE5       30.22R
MT CARMEL AP   PTCLDY    57  43  58 NE5       30.21R
OLNEY-NOBLE AP PTCLDY    54  41  62 CALM      30.22R
PARIS          PTCLDY    50  42  75 CALM      30.25R
PEORIA         CLEAR     59  33  37 SE7       30.19F
PONTIAC        PTCLDY    52  39  62 SE7       30.23S
RANTOUL        PTCLDY    52  40  64 CALM      30.25R
ROBINSON       PTCLDY    53  44  73 CALM      30.23R
SPRINGFIELD    CLEAR     58  37  45 SE8       30.19F
TAYLORVILLE    CLEAR     57  36  44 SE6       30.20F
$$

...REGIONAL REPORTS...


CITY           SKY/WX    TMP DP  RH WIND       PRES   REMARKS
CHICAGO O`HARE PTCLDY    54  35  48 SE12      30.23S
KANKAKEE       PTCLDY    53  37  54 SE10      30.26S
MOLINE         CLEAR     56  36  47 S10       30.16R
MOUNT VERNON   CLEAR     45  36  70 CALM      30.21S
PITTSFIELD     CLEAR     58  43  57 S7        30.18S
QUINCY         PTCLDY    57  42  57 SE8       30.16S
ROCKFORD       PTCLDY    53  37  54 SE9       30.23R
$$


CITY           SKY/WX    TMP DP  RH WIND       PRES   REMARKS
BURLINGTON     PTCLDY    59  40  49 S9        30.15S
CEDAR RAPIDS   MOCLDY    58  40  51 S7        30.12R
DES MOINES     CLOUDY    66  44  45 S10       30.07F
KIRKSVILLE     PTCLDY    54  41  61 SE7       30.14S
OTTUMWA        CLEAR     60  41  49 S12       30.12S
ST LOUIS       MOCLDY    60  42  51 E7        30.18F
$$


CITY           SKY/WX    TMP DP  RH WIND       PRES   REMARKS
TERRE HAUTE    PTCLDY    51  40  65 CALM      30.24R
EVANSVILLE     PTCLDY    59  40  49 NE6       30.20S
INDIANAPOLIS   PTCLDY    53  34  48 E8        30.23F
LAFAYETTE      PTCLDY    50  35  56 E8        30.27R
MADISON        MOCLDY    54  39  57 S13       30.17F
MILWAUKEE      PTCLDY    49  35  58 S12       30.24F
$$




USA.gov is the U.S. government's official web portal to all federal, state and local government web resources and services.